Weather History for Gainesville, GA

Change the Weather History Date:

Monday, August 12, 2013

  Actual Average Record
Temperature  
Mean Temperature 80 °F 79 °F  
Max Temperature 87 °F 88 °F 101 °F (1957)
Min Temperature 72 °F 70 °F 60 °F (2012)
Cooling Degree Days 15 14  
Month to date cooling degree days 161 168  
Year to date cooling degree days 980 1090  
Since 1 June cooling degree days 835 915  
Growing Degree Days 30 (Base 50)    
Moisture  
Dew Point 70 °F    
Average Humidity 74    
Maximum Humidity 93    
Minimum Humidity 55    
Precipitation  
Precipitation 0.05 in 0.16 in 2.06 in (2004)
Month to date precipitation 4.18 1.98  
Year to date precipitation 37.28 33.80  
Sea Level Pressure  
Sea Level Pressure 30.08 in    
Wind  
Wind Speed 6 mph (West)    
Max Wind Speed 14 mph    
Max Gust Speed 21 mph    
Visibility 10 miles    
Events Rain , Thunderstorm    
T = Trace of Precipitation, MM = Missing Value Source: NWS Daily Summary

Daily Weather History Graph

Daily Weather History Graph

Search for Another Location

Airport:

Trip Planner

Search our weather history database for the weather conditions in past years. The results will help you decide how hot, cold, wet, or windy it might be!

Date:

Astronomy

Aug. 12, 2013 Rise Set
Actual Time 6:54 AM EDT 8:25 PM EDT
Civil Twilight 6:27 AM EDT 8:52 PM EDT
Nautical Twilight 5:55 AM EDT 9:24 PM EDT
Astronomical Twilight 5:21 AM EDT 9:57 PM EDT
Moon 12:25 PM EDT (8/12) 11:37 PM EDT (8/12)
Length of Visible Light 14h 24m
Length of Day
13h 31m
Waxing Crescent, 31% of the Moon is Illuminated
Aug 12
Waxing Crescent
Aug 14
First Quarter
Aug 20
Full
Aug 28
Last Quarter
Sep 5
New

Hourly Weather History & Observations

Time (EDT) Temp. Heat Index Dew Point Humidity Pressure Visibility Wind Dir Wind Speed Gust Speed Precip Events Conditions
12:53 AM 73.0 °F - 69.1 °F 87% 30.12 in 10.0 mi Calm Calm - N/A   Partly Cloudy
1:15 AM 73.4 °F - 69.8 °F 88% 30.17 in 10.0 mi Calm Calm - N/A   Mostly Cloudy
1:53 AM 72.0 °F - 70.0 °F 93% 30.11 in 10.0 mi WSW 4.6 mph - N/A   Clear
2:53 AM 73.0 °F - 70.0 °F 90% 30.10 in 10.0 mi Calm Calm - N/A   Clear
3:53 AM 72.0 °F - 69.1 °F 91% 30.09 in 10.0 mi Calm Calm - N/A   Clear
4:53 AM 72.0 °F - 69.1 °F 91% 30.10 in 10.0 mi WNW 5.8 mph - N/A   Clear
5:53 AM 73.0 °F - 70.0 °F 90% 30.10 in 10.0 mi West 6.9 mph - N/A   Clear
6:53 AM 72.0 °F - 69.1 °F 91% 30.11 in 10.0 mi West 3.5 mph - N/A   Clear
7:53 AM 73.0 °F - 70.0 °F 90% 30.11 in 10.0 mi WNW 3.5 mph - N/A   Clear
8:53 AM 75.9 °F - 72.0 °F 87% 30.12 in 10.0 mi West 4.6 mph - N/A   Clear
9:53 AM 79.0 °F - 72.0 °F 79% 30.11 in 10.0 mi WNW 8.1 mph - N/A   Clear
10:53 AM 82.0 °F 86.7 °F 72.0 °F 71% 30.12 in 10.0 mi WNW 9.2 mph - N/A   Partly Cloudy
11:53 AM 84.0 °F 89.0 °F 71.1 °F 65% 30.11 in 10.0 mi West 8.1 mph - N/A   Partly Cloudy
12:53 PM 86.0 °F 91.5 °F 71.1 °F 61% 30.09 in 10.0 mi WNW 8.1 mph - N/A   Clear
1:12 PM 84.2 °F 88.4 °F 69.8 °F 62% 30.13 in 10.0 mi WSW 6.9 mph - N/A Thunderstorm Partly Cloudy
1:29 PM 87.8 °F 92.6 °F 69.8 °F 55% 30.13 in 10.0 mi WNW 6.9 mph - N/A   Clear
1:53 PM 86.0 °F 92.2 °F 72.0 °F 63% 30.07 in 10.0 mi West 8.1 mph - N/A   Partly Cloudy
2:53 PM 87.1 °F 91.3 °F 69.1 °F 55% 30.04 in 10.0 mi SW 10.4 mph - N/A   Clear
3:25 PM 87.8 °F 93.8 °F 71.6 °F 58% 30.09 in 10.0 mi WSW 9.2 mph - N/A Thunderstorm Clear
3:53 PM 84.9 °F 90.7 °F 72.0 °F 65% 30.04 in 10.0 mi SW 10.4 mph - 0.00 in Rain , Thunderstorm Light Rain
4:28 PM 78.8 °F - 69.8 °F 74% 30.10 in 2.0 mi West 8.1 mph 20.7 mph 0.05 in Rain , Thunderstorm Thunderstorms and Rain
4:35 PM 78.8 °F - 69.8 °F 74% 30.09 in 4.0 mi NW 4.6 mph - 0.05 in Rain , Thunderstorm Light Rain
4:53 PM 79.0 °F - 70.0 °F 74% 30.04 in 10.0 mi Calm Calm - 0.05 in   Partly Cloudy
5:53 PM 78.1 °F - 72.0 °F 81% 30.03 in 10.0 mi WNW 4.6 mph - 0.00 in   Clear
6:53 PM 77.0 °F - 72.0 °F 84% 30.04 in 10.0 mi West 4.6 mph - 0.00 in   Partly Cloudy
7:53 PM 77.0 °F - 70.0 °F 79% 30.01 in 10.0 mi West 5.8 mph - N/A   Clear
8:53 PM 75.0 °F - 71.1 °F 87% 30.02 in 10.0 mi WSW 6.9 mph - N/A   Clear
9:53 PM 75.0 °F - 71.1 °F 87% 30.04 in 10.0 mi West 3.5 mph - N/A   Clear
10:53 PM 75.0 °F - 70.0 °F 84% 30.03 in 10.0 mi West 5.8 mph - N/A   Clear
11:53 PM 73.9 °F - 69.1 °F 85% 30.02 in 10.0 mi West 5.8 mph - N/A   Clear